Knoxville, TN (37917)

11:08 PM EST on February 08, 2016 (GMT -0500)
North Knoxville | | Change Station
CLOSE
Current Station
Personal Weather Station
Location: Knoxville, TN
Elevation: 988 ft
Nearby Weather Stations
Active Advisory: Winter Weather Advisory

Elev 988 ft 36.01 °N, 83.93 °W | Updated 10 minutes ago

Overcast
Overcast
30.6 °F
Feels Like 23 °F
N
8.3
Wind Variable Wind from WNW

Today
High -- | Low -- °F
--% Chance of Precip.
Yesterday
High -- | Low -- °F
Precip. -- in
Pressure 29.81 in
Visibility 9.0 miles
Clouds Overcast 2400 ft
Windchill 23 °F
Dew Point 26 °F
Humidity 82%
Rainfall 0.00 in
Snow Depth Not available.
7:30 AM 6:09 PM
New Moon, 0% visible
METAR KTYS 090353Z 27010KT 9SM -SN OVC024 00/M05 A2980 RMK AO2 SLP094 P0000 T00001050
Pressure 29.81 in
Visibility 9.0 miles
Clouds Overcast 2400 ft
Windchill 23 °F
Dew Point 26 °F
Humidity 82%
Rainfall 0.00 in
Snow Depth Not available.
7:30 AM 6:09 PM
New Moon, 0% visible
METAR KTYS 090353Z 27010KT 9SM -SN OVC024 00/M05 A2980 RMK AO2 SLP094 P0000 T00001050

10-Day Weather Forecast

Almanac

Astronomy

Feb. 08, 2016 Rise Set
Actual Time
Civil Twilight
Nautical Twilight
Astronomical Twilight
Moon
Length of Visible Light
Length of Day
Tomorrow will be .
, % of the Moon is Illuminated

Today's Extremes

State Highs State Lows

Community

WunderPhotos

Upload Photos

1,891,535 photos uploaded!

WunderBlog® & News

Nearby

Air Quality

  Air Quality AQ Index Pollutant
Not available.

Snow Depth

Station Depth Elevation

Earthquake Activity

City Distance Mag. Time & Date
Minimum magnitude displayed is 2.5.

Coastal Water Temperatures

Place Temperature

Stations

Nearby Weather Stations

Station Location Temp. Windchill Dew Point Humidity Wind Precip. Elev Updated Type
                   

Watches & Warnings

Winter Weather Advisory
Issued: 8:26 PM CST Feb. 8, 2016 – National Weather Service

... Winter Weather Advisory remains in effect until 7 am EST /6 am
CST/ Wednesday...

* event... a series of upper-level disturbances will sweep across
the area over the next couple of days and nights... bringing
several periods of snow showers to the region. During the event
snowfall amounts will range from 1 to 2 inches over that period
of time... with a few locally higher amounts possible in the
higher elevations.

* Timing... tonight through Tuesday night.

* Impacts... the snow could cause hazardous driving conditions...
especially on secondary roads.

Precautionary/preparedness actions...

A Winter Weather Advisory for snow means that periods of snow are
expected or occurring... but accumulations are expected to be
light. Driving and walking may be difficult on untreated
roadways and sidewalks. Be prepared for snow covered roads and
limited visibilities. If you must travel... slow down and allow
extra time to reach your destination.